When you browse on this site, cookies collect data to enhance your experience and personalize the content and advertising you see.
Visit our Privacy Policy to learn more. By continuing to use the site, you agree to this use of cookies and data.
  • In Lithuania
  • List of Countries
  • For 7 days
  • Water Temperature
  • Weather Map
  • Weather Widgets
  • user-avatar
    Login

    Hourly Weather Lubumbashi

    Today, 1 June, Monday

    Time Temperature Precipitation Wind Pressure Humidity
    00:00 +36°C° 0 mm 1 mps 719 mmHg 13%
    01:00 +36°C° 0 mm 2 mps 719 mmHg 13%
    02:00 +36°C° 0 mm 3 mps 719 mmHg 12%
    03:00 +35°C° 0 mm 3 mps 719 mmHg 20%
    04:00 +34°C° 0 mm 3 mps 719 mmHg 27%
    05:00 +32°C° 0 mm 2 mps 720 mmHg 35%
    06:00 +33°C° 0 mm 3 mps 720 mmHg 37%
    07:00 +34°C° 0 mm 3 mps 721 mmHg 39%
    08:00 +34°C° 0 mm 3 mps 721 mmHg 41%
    09:00 +36°C° 0 mm 2 mps 721 mmHg 36%
    10:00 +36°C° 0 mm 1 mps 721 mmHg 32%
    11:00 +35°C° 0 mm 0 mps 721 mmHg 28%
    12:00 +39°C° 0 mm 1 mps 720 mmHg 25%
    13:00 +40°C° 0 mm 2 mps 720 mmHg 21%
    14:00 +41°C° 0 mm 2 mps 719 mmHg 18%
    15:00 +41°C° 0 mm 2 mps 719 mmHg 17%
    16:00 +43°C° 0 mm 3 mps 718 mmHg 16%
    17:00 +43°C° 0 mm 3 mps 718 mmHg 14%
    18:00 +42°C° 0 mm 2 mps 718 mmHg 14%
    19:00 +41°C° 0 mm 2 mps 718 mmHg 13%
    20:00 +41°C° 0 mm 2 mps 718 mmHg 12%
    21:00 +40°C° 0 mm 2 mps 718 mmHg 12%
    22:00 +39°C° 0 mm 1 mps 718 mmHg 13%
    23:00 +37°C° 0 mm 1 mps 718 mmHg 13%

    Tomorrow, 2 June, Tuesday

    Time Temperature Precipitation Wind Pressure Humidity
    00:00 +37°C° 0 mm 2 mps 718 mmHg 17%
    01:00 +37°C° 0 mm 2 mps 718 mmHg 21%
    02:00 +36°C° 0 mm 2 mps 717 mmHg 25%
    03:00 +35°C° 0 mm 2 mps 717 mmHg 29%
    04:00 +34°C° 0 mm 2 mps 718 mmHg 32%
    05:00 +34°C° 0 mm 2 mps 718 mmHg 36%
    06:00 +34°C° 0 mm 3 mps 719 mmHg 37%
    07:00 +35°C° 0 mm 4 mps 719 mmHg 38%
    08:00 +35°C° 0 mm 4 mps 720 mmHg 39%
    09:00 +36°C° 0 mm 4 mps 720 mmHg 36%
    10:00 +38°C° 0 mm 4 mps 720 mmHg 32%
    11:00 +40°C° 0 mm 4 mps 720 mmHg 29%
    12:00 +40°C° 0 mm 3 mps 719 mmHg 25%
    13:00 +41°C° 0 mm 2 mps 719 mmHg 21%
    14:00 +42°C° 0 mm 1 mps 718 mmHg 16%
    15:00 +42°C° 0 mm 1 mps 718 mmHg 16%
    16:00 +42°C° 0 mm 1 mps 717 mmHg 15%
    17:00 +42°C° 0 mm 1 mps 716 mmHg 14%
    18:00 +42°C° 0 mm 1 mps 716 mmHg 15%
    19:00 +41°C° 0 mm 1 mps 717 mmHg 15%
    20:00 +41°C° 0 mm 1 mps 717 mmHg 16%
    21:00 +40°C° 0 mm 1 mps 717 mmHg 17%
    22:00 +40°C° 0 mm 1 mps 717 mmHg 18%
    23:00 +39°C° 0 mm 1 mps 717 mmHg 19%

    Day after tomorrow, 3 June, Wednesday

    Time Temperature Precipitation Wind Pressure Humidity
    00:00 +38°C° 0 mm 2 mps 717 mmHg 21%
    01:00 +37°C° 0 mm 3 mps 717 mmHg 23%
    02:00 +37°C° 0 mm 4 mps 717 mmHg 25%
    03:00 +36°C° 0 mm 4 mps 717 mmHg 30%
    04:00 +35°C° 0 mm 4 mps 717 mmHg 36%
    05:00 +34°C° 0 mm 4 mps 717 mmHg 42%
    06:00 +34°C° 0 mm 5 mps 718 mmHg 41%
    07:00 +34°C° 0 mm 5 mps 718 mmHg 41%
    08:00 +35°C° 0 mm 5 mps 719 mmHg 41%
    09:00 +36°C° 0 mm 5 mps 719 mmHg 38%
    10:00 +37°C° 0 mm 5 mps 719 mmHg 35%
    11:00 +40°C° 0 mm 4 mps 719 mmHg 32%
    12:00 +41°C° 0 mm 4 mps 719 mmHg 28%
    13:00 +42°C° 0 mm 3 mps 718 mmHg 24%
    14:00 +42°C° 0 mm 2 mps 717 mmHg 20%
    15:00 +42°C° 0 mm 2 mps 717 mmHg 18%
    16:00 +42°C° 0 mm 1 mps 716 mmHg 17%
    17:00 +43°C° 0 mm 1 mps 716 mmHg 15%
    18:00 +42°C° 0 mm 1 mps 716 mmHg 16%
    19:00 +42°C° 0 mm 2 mps 716 mmHg 16%
    20:00 +41°C° 0 mm 2 mps 716 mmHg 16%
    21:00 +40°C° 0 mm 3 mps 716 mmHg 18%
    22:00 +41°C° 0 mm 4 mps 717 mmHg 20%
    23:00 +40°C° 0 mm 6 mps 717 mmHg 22%

    4 June, Thursday

    Time Temperature Precipitation Wind Pressure Humidity
    00:00 +38°C° 0 mm 6 mps 717 mmHg 28%
    01:00 +36°C° 0 mm 7 mps 717 mmHg 34%
    02:00 +35°C° 0 mm 7 mps 717 mmHg 39%
    03:00 +34°C° 0 mm 7 mps 717 mmHg 43%
    04:00 +33°C° 0 mm 7 mps 717 mmHg 47%
    05:00 +32°C° 0 mm 7 mps 718 mmHg 50%
    06:00 +33°C° 0 mm 6 mps 718 mmHg 50%
    07:00 +33°C° 0 mm 6 mps 719 mmHg 49%
    08:00 +33°C° 0 mm 6 mps 720 mmHg 49%
    09:00 +35°C° 0 mm 6 mps 720 mmHg 43%
    10:00 +36°C° 0 mm 5 mps 720 mmHg 38%
    11:00 +39°C° 0 mm 5 mps 720 mmHg 33%
    12:00 +40°C° 0 mm 4 mps 719 mmHg 29%
    13:00 +40°C° 0 mm 3 mps 719 mmHg 26%
    14:00 +42°C° 0 mm 3 mps 718 mmHg 22%
    15:00 +42°C° 0 mm 2 mps 717 mmHg 20%
    16:00 +42°C° 0 mm 2 mps 717 mmHg 19%
    17:00 +42°C° 0 mm 1 mps 716 mmHg 17%
    18:00 +42°C° 0 mm 2 mps 717 mmHg 17%
    19:00 +41°C° 0 mm 2 mps 717 mmHg 18%
    20:00 +41°C° 0 mm 2 mps 717 mmHg 18%
    21:00 +40°C° 0 mm 3 mps 717 mmHg 19%
    22:00 +40°C° 0 mm 3 mps 717 mmHg 20%
    23:00 +39°C° 0 mm 3 mps 718 mmHg 21%

    5 June, Friday

    Time Temperature Precipitation Wind Pressure Humidity
    00:00 +38°C° 0 mm 4 mps 717 mmHg 22%
    01:00 +37°C° 0 mm 4 mps 717 mmHg 24%
    02:00 +37°C° 0 mm 5 mps 717 mmHg 26%
    03:00 +36°C° 0 mm 6 mps 717 mmHg 31%
    04:00 +35°C° 0 mm 7 mps 717 mmHg 36%
    05:00 +34°C° 0 mm 7 mps 718 mmHg 41%
    06:00 +34°C° 0 mm 7 mps 718 mmHg 41%
    07:00 +34°C° 0 mm 7 mps 719 mmHg 42%
    08:00 +35°C° 0 mm 6 mps 720 mmHg 43%
    09:00 +36°C° 0 mm 6 mps 720 mmHg 39%
    10:00 +39°C° 0 mm 6 mps 720 mmHg 35%
    11:00 +40°C° 0 mm 6 mps 720 mmHg 31%
    12:00 +41°C° 0 mm 5 mps 720 mmHg 28%
    13:00 +42°C° 0 mm 4 mps 719 mmHg 24%
    14:00 +43°C° 0 mm 3 mps 718 mmHg 21%
    15:00 +43°C° 0 mm 2 mps 718 mmHg 19%
    16:00 +43°C° 0 mm 2 mps 717 mmHg 17%
    17:00 +43°C° 0 mm 1 mps 717 mmHg 15%
    18:00 +43°C° 0 mm 2 mps 717 mmHg 16%
    19:00 +42°C° 0 mm 2 mps 717 mmHg 16%
    20:00 +42°C° 0 mm 2 mps 718 mmHg 16%
    21:00 +40°C° 0 mm 3 mps 718 mmHg 22%
    22:00 +39°C° 0 mm 5 mps 718 mmHg 27%
    23:00 +38°C° 0 mm 7 mps 718 mmHg 33%

    6 June, Saturday

    Time Temperature Precipitation Wind Pressure Humidity
    00:00 +36°C° 0 mm 7 mps 718 mmHg 35%
    01:00 +35°C° 0 mm 7 mps 717 mmHg 37%
    02:00 +35°C° 0 mm 7 mps 717 mmHg 39%
    03:00 +34°C° 0 mm 7 mps 718 mmHg 42%
    04:00 +34°C° 0 mm 6 mps 718 mmHg 45%
    05:00 +34°C° 0 mm 5 mps 718 mmHg 48%
    06:00 +34°C° 0 mm 6 mps 719 mmHg 46%
    07:00 +35°C° 0 mm 6 mps 720 mmHg 45%
    08:00 +35°C° 0 mm 7 mps 720 mmHg 44%
    09:00 +38°C° 0 mm 7 mps 720 mmHg 39%
    10:00 +39°C° 0 mm 7 mps 720 mmHg 35%
    11:00 +41°C° 0 mm 7 mps 720 mmHg 31%
    12:00 +42°C° 0 mm 6 mps 719 mmHg 27%
    13:00 +43°C° 0 mm 5 mps 719 mmHg 24%
    14:00 +44°C° 0 mm 4 mps 718 mmHg 21%
    15:00 +44°C° 0 mm 3 mps 717 mmHg 19%
    16:00 +43°C° 0 mm 2 mps 717 mmHg 18%
    17:00 +43°C° 0 mm 1 mps 716 mmHg 17%
    18:00 +42°C° 0 mm 2 mps 716 mmHg 17%
    19:00 +41°C° 0 mm 2 mps 716 mmHg 18%
    20:00 +41°C° 0 mm 2 mps 716 mmHg 19%
    21:00 +40°C° 0 mm 3 mps 717 mmHg 21%
    22:00 +40°C° 0 mm 4 mps 717 mmHg 24%
    23:00 +38°C° 0 mm 4 mps 717 mmHg 26%
    Show more